Regional Weather Roundup
Issued by NWS

Home | Current Version | Previous Version | Graphics & Text | Print | Product List | Glossary On
Versions: 1 2 3 4 5 6 7 8 9 10 11 12 13 14 15 16 17 18 19 20 21 22 23 24 25 26 27 28 29 30 31 32 33 34 35 36 37 38 39 40 41 42 43 44 45 46 47 48 49 50
000
ASUS43 KLMK 021902
RWRKY
KENTUCKY REGIONAL WEATHER ROUNDUP
NATIONAL WEATHER SERVICE LOUISVILLE KY
300 PM EDT TUE SEP 02 2014

NOTE "FAIR" INDICATES FEW OR NO CLOUDS BELOW 12,000 FEET
WITH NO SIGNIFICANT WEATHER AND/OR OBSTRUCTIONS TO VISIBILITY.

KYZ001>023-026-027-061>063-070>075-022000-
WESTERN AND SOUTH CENTRAL KENTUCKY

CITY           SKY/WX    TMP DP  RH WIND       PRES   REMARKS
PADUCAH        CLOUDY    86  70  58 W13       29.99R HX  90
HENDERSON      PTSUNNY   84  70  61 W10       29.97R
OWENSBORO      MOSUNNY   90  73  58 W12       29.97R HX  98
HOPKINSVILLE   PTSUNNY   85  76  73 W8        29.99S HX  95
BOWLING GREEN  TSTM      80  72  76 CALM      29.98S
GLASGOW        PTSUNNY   87  71  59 SW10G18   29.96F HX  92
$$

KYZ024-025-028>034-038-045-046-053-022000-
NORTH CENTRAL KENTUCKY

CITY           SKY/WX    TMP DP  RH WIND       PRES   REMARKS
LOUISVILLE/SDF PTSUNNY   87  73  62 SW12      29.95F HX  94
LOUISVILLE/LOU PTSUNNY   84  72  67 W9        29.95F
FORT KNOX      PTSUNNY   86  73  65 SW12G20   29.96R HX  93
$$

KYZ035>037-039>044-047>052-055>060-089>105-022000-
NORTHEAST KENTUCKY

CITY           SKY/WX    TMP DP  RH WIND       PRES   REMARKS
LEXINGTON      PTSUNNY   85  71  63 SW14      29.98F HX  90
COVINGTON      NOT AVBL
FRANKFORT      PTSUNNY   84  72  67 SW13      29.96F
$$

KYZ054-064>069-076>088-106>120-022000-
SOUTHEAST KENTUCKY

CITY           SKY/WX    TMP DP  RH WIND       PRES   REMARKS
JACKSON        TSTM      78  73  84 CALM      30.00F
LONDON         MOSUNNY   88  69  53 SW10G18   30.01F HX  92
SOMERSET       PTSUNNY   86  68  54 SW14G21   30.01F
MIDDLESBORO    MOSUNNY   86  72  62 S8        30.03F HX  91
MONTICELLO     PTCLDY    89  73  59 SW9G18    30.01F HX  96
$$




USA.gov is the U.S. government's official web portal to all federal, state and local government web resources and services.